Regional Weather Roundup
Issued by NWS

Home | Current Version | Previous Version | Graphics & Text | Print | Product List | Glossary On
Versions: 1 2 3 4 5 6 7 8 9 10 11 12 13 14 15 16 17 18 19 20 21 22 23 24 25 26 27 28 29 30 31 32 33 34 35 36 37 38 39 40 41 42 43 44 45 46 47 48 49 50
000
ASUS43 KLMK 271310
RWRKY
KENTUCKY REGIONAL WEATHER ROUNDUP
NATIONAL WEATHER SERVICE LOUISVILLE KY
900 AM EDT THU AUG 27 2015

NOTE "FAIR" INDICATES FEW OR NO CLOUDS BELOW 12,000 FEET
WITH NO SIGNIFICANT WEATHER AND/OR OBSTRUCTIONS TO VISIBILITY.

KYZ001>023-026-027-061>063-070>075-271400-
WESTERN AND SOUTH CENTRAL KENTUCKY

CITY           SKY/WX    TMP DP  RH WIND       PRES   REMARKS
PADUCAH        SUNNY     63  59  87 CALM      30.15R
HENDERSON      SUNNY     63  57  82 NE3       30.15S
OWENSBORO      SUNNY     66  59  78 CALM      30.17R
HOPKINSVILLE   SUNNY     62  58  87 CALM      30.14R
BOWLING GREEN  SUNNY     63  57  81 E5        30.15R
GLASGOW        SUNNY     62  59  90 E3        30.15S
$$

KYZ024-025-028>034-038-045-046-053-271400-
NORTH CENTRAL KENTUCKY

CITY           SKY/WX    TMP DP  RH WIND       PRES   REMARKS
LOUISVILLE/SDF SUNNY     67  57  70 CALM      30.16R
LOUISVILLE/LOU SUNNY     66  57  72 E3        30.18R
FORT KNOX      SUNNY     63  57  81 NE3       30.15R
$$

KYZ035>037-039>044-047>052-055>060-089>105-271400-
NORTHEAST KENTUCKY

CITY           SKY/WX    TMP DP  RH WIND       PRES   REMARKS
LEXINGTON      SUNNY     65  57  75 E5        30.17S
COVINGTON      PTSUNNY   65  57  75 CALM      30.18R
FRANKFORT      SUNNY     62  57  83 E3        30.17R
$$

KYZ054-064>069-076>088-106>120-271400-
SOUTHEAST KENTUCKY

CITY           SKY/WX    TMP DP  RH WIND       PRES   REMARKS
JACKSON        SUNNY     61  56  83 CALM      30.18R
LONDON         SUNNY     62  55  77 E5        30.16S
SOMERSET       SUNNY     61  59  94 E3        30.17S
MIDDLESBORO    CLOUDY    55  55 100 CALM      30.17S FOG
MONTICELLO     SUNNY     63  59  87 CALM      30.19R
$$




USA.gov is the U.S. government's official web portal to all federal, state and local government web resources and services.